TimeCST,TemperatureF,Dew PointF,Humidity,Sea Level PressureIn,VisibilityMPH,Wind Direction,Wind SpeedMPH,Gust SpeedMPH,PrecipitationIn,Events,Conditions,WindDirDegrees,DateUTC
12:53 AM,19.9,15.1,81,29.83,10.0,SW,4.6,-,N/A,,Scattered Clouds,220,2013-02-13 06:53:00
1:53 AM,19.0,15.1,85,29.82,9.0,SW,3.5,-,N/A,,Overcast,220,2013-02-13 07:53:00
2:53 AM,16.0,12.9,88,29.81,8.0,SSW,3.5,-,N/A,,Scattered Clouds,210,2013-02-13 08:53:00
3:53 AM,17.1,15.1,92,29.80,6.0,Calm,Calm,-,N/A,,Mostly Cloudy,0,2013-02-13 09:53:00
4:53 AM,19.9,16.0,85,29.78,7.0,Calm,Calm,-,N/A,,Overcast,0,2013-02-13 10:53:00
5:53 AM,17.1,14.0,88,29.78,5.0,Calm,Calm,-,N/A,,Mostly Cloudy,0,2013-02-13 11:53:00
6:53 AM,18.0,16.0,92,29.76,5.0,Calm,Calm,-,N/A,,Overcast,0,2013-02-13 12:53:00
7:53 AM,21.0,17.1,85,29.76,5.0,Calm,Calm,-,N/A,,Overcast,0,2013-02-13 13:53:00
8:53 AM,19.9,17.1,89,29.75,6.0,SSW,3.5,-,N/A,,Clear,200,2013-02-13 14:53:00
9:53 AM,26.1,19.9,78,29.73,9.0,SSW,5.8,-,N/A,,Clear,200,2013-02-13 15:53:00
10:53 AM,30.9,23.0,72,29.72,10.0,South,10.4,-,N/A,,Clear,190,2013-02-13 16:53:00
11:53 AM,32.0,25.0,75,29.71,10.0,South,8.1,-,N/A,,Clear,190,2013-02-13 17:53:00
12:53 PM,33.1,25.0,72,29.69,10.0,South,9.2,-,N/A,,Clear,190,2013-02-13 18:53:00
1:53 PM,34.0,25.0,70,29.67,10.0,South,6.9,-,N/A,,Partly Cloudy,180,2013-02-13 19:53:00
2:53 PM,34.0,26.1,73,29.67,10.0,South,6.9,-,N/A,,Overcast,190,2013-02-13 20:53:00
3:53 PM,34.0,27.0,75,29.67,6.0,South,8.1,-,0.00,Snow,Light Snow,190,2013-02-13 21:53:00
4:01 PM,33.8,26.6,75,29.59,2.0,SSW,9.2,-,0.00,Snow,Light Snow,200,2013-02-13 22:01:00
4:09 PM,33.8,28.4,81,29.59,1.5,South,8.1,-,0.00,Snow,Light Snow,190,2013-02-13 22:09:00
4:49 PM,32.0,30.2,93,29.59,0.8,South,4.6,-,0.01,Snow,Light Snow,170,2013-02-13 22:49:00
4:53 PM,32.0,30.0,92,29.65,0.5,SSE,3.5,-,0.01,Fog-Snow,Snow,160,2013-02-13 22:53:00
5:09 PM,32.0,30.2,93,29.58,0.2,SE,4.6,-,0.02,Fog-Snow,Snow,140,2013-02-13 23:09:00
5:21 PM,32.0,30.2,93,29.58,0.2,SE,4.6,-,0.03,Fog-Snow,Snow,140,2013-02-13 23:21:00
5:48 PM,32.0,30.2,93,29.58,0.5,SE,6.9,-,0.06,Fog-Snow,Snow,140,2013-02-13 23:48:00
5:53 PM,32.0,30.0,92,29.65,0.8,SE,5.8,-,0.06,Snow,Light Snow,140,2013-02-13 23:53:00
6:11 PM,30.2,30.2,100,29.58,0.5,SE,6.9,-,0.02,Fog-Snow,Snow,130,2013-02-14 00:11:00
6:53 PM,30.9,30.0,96,29.65,0.8,SE,4.6,-,0.06,Snow,Light Snow,140,2013-02-14 00:53:00
7:26 PM,30.2,30.2,100,29.58,0.8,Calm,Calm,-,0.02,Snow,Light Snow,0,2013-02-14 01:26:00
7:37 PM,30.2,30.2,100,29.58,0.5,Calm,Calm,-,0.04,Fog-Snow,Snow,0,2013-02-14 01:37:00
7:53 PM,32.0,30.0,92,29.64,0.8,Calm,Calm,-,0.06,Snow,Light Snow,0,2013-02-14 01:53:00
8:10 PM,30.2,30.2,100,29.57,0.5,Calm,Calm,-,0.01,Fog-Snow,Snow,0,2013-02-14 02:10:00
8:48 PM,32.0,30.2,93,29.57,1.0,NE,4.6,-,0.03,Snow,Light Snow,40,2013-02-14 02:48:00
8:53 PM,32.0,30.0,92,29.64,1.0,NNE,4.6,-,0.03,Snow,Light Snow,30,2013-02-14 02:53:00
9:15 PM,30.2,28.4,93,29.57,1.0,NNE,5.8,-,0.01,Snow,Light Snow,20,2013-02-14 03:15:00
9:53 PM,30.9,28.9,92,29.63,1.0,North,6.9,-,0.02,Snow,Light Snow,10,2013-02-14 03:53:00
10:40 PM,32.0,28.4,87,29.59,1.0,North,8.1,-,0.02,Snow,Light Snow,360,2013-02-14 04:40:00
10:50 PM,32.0,30.2,93,29.59,0.8,North,6.9,-,0.03,Snow,Light Snow,360,2013-02-14 04:50:00
10:53 PM,32.0,30.0,92,29.65,0.8,North,8.1,-,0.03,Snow,Light Snow,360,2013-02-14 04:53:00
11:03 PM,32.0,30.2,93,29.59,1.0,North,9.2,-,0.01,Snow,Light Snow,360,2013-02-14 05:03:00
11:25 PM,32.0,30.2,93,29.60,1.2,North,9.2,-,0.01,Snow,Light Snow,360,2013-02-14 05:25:00
11:53 PM,32.0,30.0,92,29.67,1.5,North,8.1,-,0.02,Snow,Light Snow,360,2013-02-14 05:53:00